CAPE
56 0 0 0 0 0 0 1 0 0 0 0 1 0 0 0 0 0 1 0 0 1
0 0 3 0 0 0 0 0 0 0 0 0 0 0 0 0 0 0 0 0 0 0
0 0 0 0 0 0 0 0 0 0 0 0 0 0 0 0 0 0 0 0 0 0
0 0 0 0 0 0 0 0 0 0 0 0 0 0 0 0 0 0 0 0 0 0
0 0 0 0 0 0 0 0 0 1 0 0 0 0 0 0 0 0 0 0 0 0
0 0 0 1 0 0 0 1 0 1 1 1 0 0 0 0 0 0 0 0 0 0
8 1 14 0 0 1 1 1 1 1 0 0 0 0 0 0 0 0 0 0 0 0
7 25 2 2 2 1 0 1 0 0 0 0 0 0 0 0 0 0 0 0 0 1
27 2 2 1 1 0 1 0 0 0 0 0 0 0 0 0 0 0 0 0 0 0
1 1 2 1 0 0 0 0 0 0 0 0 0 0 0 0 0 0 1 0 0 0
1 2 1 0 0 0 0 0 0 0 0 0 0 0 0 0 0 0 0 0 0 0
1 1 0 0 0 0 0 0 0 0 0 0 0 0 8 0 0 0 0 0 0 0
0 0 0 0 0 0 0 0 0 0 0 0 0 0 3 0 0 0 0 0 0 0
0 0 0 0 0 1 10 6 5 3 0 0 0 0 2 4 0 0 0 0 0 0
CIN
-159 0 0 0 0 0 0 0 0 0 0 0 0 0 0 0 0 0 0 0 0 0
0 0 -15 0 0 0 0 0 0 0 0 0 0 0 0 0 0 0 0 0 0 0
0 0 0 0 0 0 0 0 0 0 0 0 0 0 0 0 0 0 0 0 0 0
0 0 0 0 0 0 0 0 0 0 0 0 0 0 0 0 0 0 0 0 0 0
0 0 0 0 0 0 0 0 0 0 0 0 0 0 0 0 0 0 0 0 0 0
0 -5 -3 0 0 0 0 0 0 0 0 0 0 0 0 0 0 0 0 0 0 0
-27 -37 -19 0 0 0 0 0 0 0 0 0 0 0 0 0 0 0 0 0 0 -1
-16 -8 0 0 0 0 0 0 0 0 0 0 0 0 0 0 0 0 0 0 0 0
-2 0 0 0 0 0 0 0 0 0 0 0 0 0 0 0 0 0 0 0 0 0
0 0 0 0 0 0 0 0 0 0 0 0 0 0 0 0 -15 -9 -11 0 0 0
0 0 0 0 0 0 0 0 0 0 0 0 0 0 0 0 0 0 0 0 0 -18
0 0 0 0 0 -9 0 0 0 0 0 0 0 0 -12 -2 0 0 0 0 0 0
0 0 0 0 0 0 -1 -3 -2 -7 0 0 0 0 -25 -3 0 0 0 0 0 0
0 0 0 0 0 -9 -9 -13 -21 -20 -15 0 0 0 -26 -27 -10 0 0 0 0 0
Wind_Speed
35 36 36 33 33 33 33 33 32 29 26 25 24 21 26 26 24 28 29 30 33 34
36 37 38 36 34 33 32 32 32 30 28 27 28 28 27 29 28 25 27 31 32 32
40 39 38 37 35 34 32 31 31 31 29 28 27 28 26 27 24 25 26 30 31 31
42 41 40 38 34 31 29 29 29 28 27 27 26 26 25 25 26 28 28 28 29 30
41 42 40 34 28 27 27 26 27 25 24 23 23 23 23 24 24 25 26 27 28 28
40 38 36 27 25 25 25 24 24 23 22 20 20 21 22 21 22 23 24 25 26 27
32 34 25 23 23 23 23 22 21 20 20 19 19 21 20 22 23 24 24 24 25 25
31 24 22 22 21 22 22 20 19 19 19 18 19 21 21 22 22 23 23 24 24 25
25 21 21 21 21 21 19 18 19 19 18 19 20 21 20 20 21 22 22 22 23 23
23 22 20 21 20 20 18 17 18 18 19 19 19 17 20 21 21 21 21 20 19 19
21 22 22 20 13 14 13 15 16 18 18 18 20 22 21 20 21 22 23 21 15 17
21 22 22 21 21 21 21 19 20 21 22 21 21 22 21 21 22 23 24 23 20 18
22 23 24 23 23 22 22 21 20 22 23 23 22 22 22 21 21 23 22 21 21 18
23 24 24 23 24 23 23 22 23 23 23 24 23 22 22 21 20 21 22 21 19 17
Wind_Direction
333 331 335 341 338 327 320 312 311 308 308 311 307 314 313 306 312 301 300 306 307 306
335 329 325 327 332 330 322 317 313 310 305 301 298 300 306 296 306 314 315 305 308 310
322 323 324 323 326 325 326 323 316 309 308 306 304 303 308 310 320 316 315 309 310 314
317 318 317 320 324 326 329 326 326 321 310 308 307 309 310 313 313 306 308 312 316 318
316 314 314 319 326 329 331 333 330 330 329 322 313 312 315 310 314 312 313 318 322 322
317 314 315 323 327 330 333 337 334 335 333 334 322 319 317 311 312 318 321 325 326 327
330 317 323 326 331 333 336 341 344 343 336 339 325 317 315 307 313 318 324 329 329 332
332 339 338 335 336 339 335 339 339 343 337 343 330 314 314 317 319 323 330 332 332 334
354 357 351 346 348 347 344 326 315 345 332 343 338 322 328 331 331 330 331 333 337 341
6 12 13 6 358 343 326 328 343 352 351 346 341 343 343 341 343 348 348 342 347 355
23 10 358 349 300 311 297 330 340 343 344 344 343 345 351 357 3 10 7 6 2 359
48 42 41 31 44 25 11 12 13 12 5 2 6 9 17 24 25 26 19 23 17 22
63 58 57 54 42 30 24 18 19 20 17 18 21 21 24 27 28 27 19 16 16 22
59 61 58 52 48 30 30 35 32 29 26 29 30 28 24 21 26 27 23 18 13 20